Simultaneous Nadir Overpasses (SNOs) Predictions

Prediction of SNOs between GOES-16 and TERRA Satellite Orbit:

Table of predicted SNOs for the next 14.0 days since TLE Epoch: 5/12/2017
Index Date Time (GOES-16) GOES-16 Lat,Lon TERRA Lat,Lon Distance(km) Time Diff (sec)
1 05/13/2017 04:22:51 0.00, -89.51 0.23, -88.48 117.84 80
2 05/13/2017 16:44:05 -0.00, -89.53 0.89, -93.63 466.58 80
3 05/15/2017 04:10:40 -0.00, -89.53 0.88, -85.52 456.48 80
4 05/15/2017 16:31:54 0.00, -89.55 0.24, -90.67 127.79 80
5 05/17/2017 16:22:24 0.01, -89.58 -0.41, -87.72 211.21 80
6 05/18/2017 04:43:47 -0.01, -89.57 -0.71, -92.91 379.32 80
7 05/20/2017 04:31:35 -0.01, -89.60 -0.11, -89.95 40.21 80
8 05/22/2017 04:16:44 -0.01, -89.63 0.55, -87.00 299.39 80
9 05/22/2017 16:37:59 0.01, -89.64 0.57, -92.15 285.34 80
10 05/24/2017 16:28:28 0.01, -89.67 -0.09, -89.20 54.37 80




NCC Satellite Simultaneous Nadir Overpasses (SNOs) Prediction Service
